Location: Northcutt
(34.7304°N, 84.4305°W)
Time: 10:27:56
(UTC+00:00)

A-11 Canister half - Pass Details

Date: 11 October 2022
Orbit: 1524 x 1685 km, 47.3° (Epoch: 30 November)

Event Time Altitude Azimuth Distance (km) Brightness Sun altitude
Rises 18:13:42 0° 236° (WSW) 4,705 12.1 46.5°
Reaches altitude 10° 18:16:46 10° 238° (WSW) 3,709 11.7 46.3°
Maximum altitude 18:26:08 81° 325° (NW) 1,542 9.8 45.6°
Drops below altitude 10° 18:35:28 10° 54° (NE) 3,698 10.7 44.8°
Sets 18:38:31 0° 55° (NE) 4,691 11.2 44.5°
